ITA225 LICR-LICR

Flight info

Callsign ITA225
Flight time 0h 22m
Altitude 3000
Route RCA
Aircraft A20N/M-SDE2E3FGHIRWXY/LB1

Departure

Time 2026-04-18 08:43
Airport Reggio Calabria Airport (LICR)

Arrival

Time 2026-04-18 09:05
Airport Reggio Calabria Airport (LICR)
Time Latitude Longitude Altitude Speed Heading
2026-04-18 08:33 38.07408 15.65272 65 ft 0 kts 110°
2026-04-18 08:40 38.07395 15.65273 66 ft 7 kts 199°
2026-04-18 08:41 38.07332 15.65205 64 ft 13 kts 237°
2026-04-18 08:41 38.07239 15.65085 57 ft 31 kts 166°
2026-04-18 08:41 38.06884 15.65312 47 ft 64 kts 153°
2026-04-18 08:41 38.06542 15.65535 46 ft 34 kts 146°
2026-04-18 08:42 38.06444 15.65620 49 ft 11 kts 245°
2026-04-18 08:42 38.06485 15.65561 45 ft 9 kts 325°
2026-04-18 08:42 38.06644 15.65461 47 ft 67 kts 332°
2026-04-18 08:42 38.07369 15.64994 130 ft 157 kts 335°
2026-04-18 08:43 38.08425 15.64398 968 ft 177 kts 346°
2026-04-18 08:43 38.09723 15.64382 1938 ft 205 kts 13°
2026-04-18 08:43 38.11205 15.64999 2639 ft 239 kts 19°
2026-04-18 08:43 38.12853 15.65809 3303 ft 267 kts 21°
2026-04-18 08:44 38.14626 15.66813 4016 ft 291 kts 25°
2026-04-18 08:44 38.16505 15.68024 4794 ft 314 kts 27°
2026-04-18 08:44 38.18379 15.69646 5263 ft 342 kts 45°
2026-04-18 08:44 38.19606 15.72193 5523 ft 328 kts 67°
2026-04-18 08:45 38.20000 15.75032 5775 ft 345 kts 94°
2026-04-18 08:45 38.19663 15.77879 6379 ft 290 kts 77°
2026-04-18 08:45 38.20536 15.80002 7800 ft 263 kts 36°
2026-04-18 08:45 38.22129 15.81226 8641 ft 279 kts 30°
2026-04-18 08:46 38.23748 15.82539 7947 ft 273 kts 29°
2026-04-18 08:46 38.25607 15.83712 5764 ft 322 kts 26°
2026-04-18 08:46 38.27736 15.85070 3726 ft 361 kts 26°
2026-04-18 08:46 38.29954 15.86535 2519 ft 362 kts 27°
2026-04-18 08:47 38.32062 15.88038 2307 ft 333 kts 32°
2026-04-18 08:47 38.34066 15.89346 1885 ft 315 kts 20°
2026-04-18 08:47 38.35991 15.90001 2224 ft 274 kts
2026-04-18 08:47 38.37745 15.90060 2727 ft 242 kts 347°
2026-04-18 08:48 38.39094 15.88983 3489 ft 237 kts 288°
2026-04-18 08:48 38.38803 15.86899 4159 ft 267 kts 236°
2026-04-18 08:48 38.37112 15.85691 5033 ft 309 kts 190°
2026-04-18 08:48 38.34929 15.86416 5907 ft 342 kts 156°
2026-04-18 08:49 38.32962 15.88249 6839 ft 360 kts 143°
2026-04-18 08:49 38.31206 15.90501 7718 ft 355 kts 129°
2026-04-18 08:49 38.29870 15.93227 8555 ft 369 kts 123°
2026-04-18 08:49 38.28598 15.96048 9207 ft 362 kts 121°
2026-04-18 08:50 38.27431 15.98872 9576 ft 359 kts 119°
2026-04-18 08:50 38.26334 16.01744 9691 ft 369 kts 117°
2026-04-18 08:50 38.25186 16.04777 9548 ft 387 kts 119°
2026-04-18 08:50 38.24053 16.07768 9326 ft 361 kts 116°
2026-04-18 08:51 38.23036 16.10579 9030 ft 340 kts 117°
2026-04-18 08:51 38.22054 16.13235 8783 ft 325 kts 115°
2026-04-18 08:51 38.21014 16.15698 8704 ft 305 kts 130°
2026-04-18 08:51 38.19534 16.17556 8716 ft 299 kts 150°
2026-04-18 08:52 38.17656 16.18669 8778 ft 299 kts 167°
2026-04-18 08:52 38.15666 16.19520 8822 ft 306 kts 167°
2026-04-18 08:52 38.13613 16.20372 8772 ft 313 kts 169°
2026-04-18 08:52 38.11545 16.20275 8787 ft 294 kts 207°
2026-04-18 08:53 38.10024 16.18691 8776 ft 283 kts 242°
2026-04-18 08:53 38.09570 16.16313 8803 ft 281 kts 269°
2026-04-18 08:53 38.09568 16.13845 8784 ft 285 kts 271°
2026-04-18 08:53 38.09604 16.11201 8796 ft 320 kts 272°
2026-04-18 08:54 38.09680 16.08282 8671 ft 345 kts 273°
2026-04-18 08:54 38.09737 16.05305 8633 ft 326 kts 269°
2026-04-18 08:54 38.09097 16.02634 8525 ft 312 kts 239°
2026-04-18 08:54 38.07597 16.00790 8436 ft 296 kts 208°
2026-04-18 08:55 38.05755 15.99802 8343 ft 280 kts 201°
2026-04-18 08:55 38.04071 15.98702 8234 ft 266 kts 220°
2026-04-18 08:55 38.02896 15.97013 8087 ft 248 kts 244°
2026-04-18 08:55 38.02305 15.94985 8006 ft 254 kts 262°
2026-04-18 08:56 38.02139 15.92792 7982 ft 243 kts 268°
2026-04-18 08:56 38.01934 15.90710 7859 ft 233 kts 266°
2026-04-18 08:56 38.01714 15.88612 7292 ft 244 kts 268°
2026-04-18 08:56 38.01644 15.86507 7169 ft 234 kts 275°
2026-04-18 08:57 38.01811 15.82538 6829 ft 216 kts 272°
2026-04-18 08:57 38.01739 15.80688 6644 ft 204 kts 274°
2026-04-18 08:57 38.01910 15.78970 6387 ft 194 kts 295°
2026-04-18 08:58 38.02451 15.77428 5990 ft 188 kts 302°
2026-04-18 08:58 38.02904 15.75904 5566 ft 185 kts 284°
2026-04-18 08:58 38.02895 15.74293 5134 ft 182 kts 262°
2026-04-18 08:58 38.02526 15.72742 4474 ft 190 kts 252°
2026-04-18 08:59 38.01993 15.71163 3759 ft 196 kts 247°
2026-04-18 08:59 38.01186 15.69848 3305 ft 186 kts 227°
2026-04-18 08:59 38.01066 15.68588 2960 ft 139 kts 316°
2026-04-18 08:59 38.01900 15.68046 2519 ft 142 kts 344°
2026-04-18 09:00 38.02828 15.67579 2139 ft 144 kts 334°
2026-04-18 09:00 38.03637 15.66894 1717 ft 145 kts 319°
2026-04-18 09:00 38.04539 15.66513 1171 ft 139 kts 355°
2026-04-18 09:00 38.05476 15.66211 706 ft 141 kts 338°
2026-04-18 09:01 38.06359 15.65632 190 ft 147 kts 337°
2026-04-18 09:01 38.07224 15.65100 56 ft 120 kts 330°
2026-04-18 09:01 38.08068 15.64545 327 ft 153 kts 334°
2026-04-18 09:01 38.08779 15.63824 645 ft 129 kts 302°
2026-04-18 09:02 38.08930 15.62689 854 ft 130 kts 299°
2026-04-18 09:02 38.09729 15.62469 931 ft 143 kts 44°
2026-04-18 09:02 38.09642 15.63625 863 ft 147 kts 138°
2026-04-18 09:02 38.08682 15.64124 469 ft 152 kts 151°
2026-04-18 09:03 38.07698 15.64773 96 ft 162 kts 151°
2026-04-18 09:03 38.06816 15.65370 50 ft 150 kts 152°
2026-04-18 09:03 38.05760 15.65966 469 ft 151 kts 159°
2026-04-18 09:03 38.04744 15.65666 669 ft 176 kts 219°
2026-04-18 09:04 38.03690 15.64889 751 ft 169 kts 184°
2026-04-18 09:04 38.02994 15.65742 581 ft 148 kts 66°
2026-04-18 09:04 38.03808 15.65986 504 ft 131 kts 358°
2026-04-18 09:04 38.04725 15.66264 628 ft 144 kts 354°
2026-04-18 09:05 38.05674 15.66039 464 ft 136 kts 345°
2026-04-18 09:05 38.06550 15.65511 107 ft 141 kts 336°
2026-04-18 09:05 38.07283 15.65053 54 ft 68 kts 333°
2026-04-18 09:05 38.07465 15.64947 64 ft 4 kts 317°
2026-04-18 09:06 38.07421 15.64970 66 ft 14 kts 148°
2026-04-18 09:06 38.07285 15.65077 56 ft 17 kts 97°
2026-04-18 09:06 38.07317 15.65171 60 ft 18 kts 63°
2026-04-18 09:06 38.07358 15.65274 61 ft 9 kts 67°
2026-04-18 09:07 38.07362 15.65300 64 ft 2 kts 120°
2026-04-18 09:07 38.07356 15.65311 64 ft 0 kts 120°
2026-04-18 09:07 38.07356 15.65312 64 ft 1 kts 120°
2026-04-18 09:07 38.07357 15.65310 64 ft 1 kts 120°
2026-04-18 09:08 38.07359 15.65305 63 ft 0 kts 120°